(353548) = 2006 RR24 = 2011 SJ187

Discovered at Kitt Peak on 2006-09-14 by Spacewatch.

Orbit

Orbit type: Main Belt

Note: WebGL enabled browser required.

epoch2023-02-25.0
epoch JD2460000.5
perihelion date2021-03-25.34813
perihelion JD2459298.84813
argument of perihelion (°)184.38368
ascending node (°)208.56638
inclination (°)5.35203
eccentricity0.0647802
perihelion distance (AU)2.5993354
Tisserand w.r.t. Jupiter3.3
ΔV w.r.t. Earth (km/sec)10.2
semimajor axis (AU)2.7793845
mean anomaly (°)149.24596
mean daily motion (°/day)0.21270660
aphelion distance (AU)2.959
period (years)4.63
P-vector [x]0.83930430
P-vector [y]0.50159311
P-vector [z]0.20969654
Q-vector [x]-0.54182927
Q-vector [y]0.80339186
Q-vector [z]0.24694648
absolute magnitude16.59
phase slope0.15
uncertainty0
referenceMPO 745323
observations used315
oppositions15
arc length (days)7498
first opposition used2002
last opposition used2023
residual rms (arc-secs)0.73
perturbers coarse indicatorM-v
perturbers precise indicator003Ek
first observation date used2002-11-02.0
last observation date used2023-05-14.0
computer nameMPCLINUX
JD of orbit computation2456819.482823
perihelion JD uncertainty (days)1.7810E-04
argument of perihelion uncertainty (°)5.4662E-05
ascending node uncertainty (°)4.2697E-05
inclination uncertainty (°)5.2630E-06
eccentricity uncertainty 4.7511E-08
perihelion distance uncertainty (AU)1.2848E-07
Minimum Orbit Intersection Distances (in AU)
for orbit epoch: 2460000.5, reference: E2023-JF5
Mercury2.26583
Venus1.87589
Earth1.60336
Mars1.11813
Jupiter2.34473
Saturn6.37634
Uranus15.5387
Neptune27.2523

Observations

327 total observations over interval: 2002 11 02.17327 – 2023 05 14.296277
These data are available for download (format description).

Date (UT) J2000 RA J2000 Dec Magn Location Ref
2002 11 02.17327 03 06 01.63 +14 58 46.2 20.1 V 950 – La Palma MPS 414298
2002 11 02.18116 03 06 01.22 +14 58 43.4   950 – La Palma MPS 414298
2002 11 02.19301 03 06 00.61 +14 58 39.3   950 – La Palma MPS 414298
2004 03 21.14097 09 44 21.42 +07 13 18.9 21.6 V 691 – Steward Observatory, Kitt Peak-Spacewatch MPS 414298
2004 03 21.17096 09 44 20.61 +07 13 28.1 21.8 V 691 – Steward Observatory, Kitt Peak-Spacewatch MPS 414298
2004 03 21.20773 09 44 19.61 +07 13 38.4 20.9 V 691 – Steward Observatory, Kitt Peak-Spacewatch MPS 414298
2005 06 14.16789 15 24 35.54 -14 10 07.3 21.3 V 691 – Steward Observatory, Kitt Peak-Spacewatch MPS 414298
2005 06 14.18551 15 24 34.91 -14 10 04.6 21.1 V 691 – Steward Observatory, Kitt Peak-Spacewatch MPS 414298
2005 06 14.20303 15 24 34.30 -14 10 01.9 21.1 V 691 – Steward Observatory, Kitt Peak-Spacewatch MPS 414298
2006 09 14.17533 21 58 56.15 -05 23 14.1   691 – Steward Observatory, Kitt Peak-Spacewatch MPS 179507
2006 09 14.18862 21 58 55.64 -05 23 19.1   691 – Steward Observatory, Kitt Peak-Spacewatch MPS 179507
2006 09 14.20192 21 58 55.12 -05 23 24.1   691 – Steward Observatory, Kitt Peak-Spacewatch MPS 179507
2006 09 17.16368 21 57 10.15 -05 40 38.5 20.6 V 691 – Steward Observatory, Kitt Peak-Spacewatch MPS 179507
2006 09 17.17643 21 57 09.71 -05 40 43.4 20.6 V 691 – Steward Observatory, Kitt Peak-Spacewatch MPS 179507
2006 09 17.18919 21 57 09.25 -05 40 47.7 20.6 V 691 – Steward Observatory, Kitt Peak-Spacewatch MPS 179507
2009 03 03.37938 12 25 38.75 -06 52 03.3 20.6 V 691 – Steward Observatory, Kitt Peak-Spacewatch MPS 414298
2009 03 03.39703 12 25 38.11 -06 51 58.1 20.9 V 691 – Steward Observatory, Kitt Peak-Spacewatch MPS 414298
2009 03 03.41466 12 25 37.45 -06 51 53.6 20.8 V 691 – Steward Observatory, Kitt Peak-Spacewatch MPS 414298
2009 03 22.33167 12 12 01.04 -05 03 03.2 20.5 V G96 – Mt. Lemmon Survey MPS 414298
2009 03 22.33714 12 12 00.79 -05 03 00.9 20.1 V G96 – Mt. Lemmon Survey MPS 414298
2009 03 22.34262 12 12 00.46 -05 02 58.9 20.1 V G96 – Mt. Lemmon Survey MPS 414298
2009 03 22.34802 12 12 00.25 -05 02 56.7 20.7 V G96 – Mt. Lemmon Survey MPS 414298
2011 06 28.43411 00 44 39.19 +08 27 57.8 21.6 V G96 – Mt. Lemmon Survey MPS 416190
2011 06 28.44108 00 44 39.55 +08 28 00.4 21.7 V G96 – Mt. Lemmon Survey MPS 416190
2011 06 28.44807 00 44 40.02 +08 28 03.7 21.3 V G96 – Mt. Lemmon Survey MPS 416190
2011 06 28.45495 00 44 40.48 +08 28 07.6 20.9 V G96 – Mt. Lemmon Survey MPS 416190
2011 09 29.31832 01 02 32.96 +09 10 40.1 19.7 V G96 – Mt. Lemmon Survey MPS 393021
2011 09 29.32637 01 02 32.64 +09 10 36.0 20.3 V G96 – Mt. Lemmon Survey MPS 393021
2011 09 29.33433 01 02 32.24 +09 10 32.9 20.1 V G96 – Mt. Lemmon Survey MPS 393021
2011 09 29.34232 01 02 31.88 +09 10 29.8 19.9 V G96 – Mt. Lemmon Survey MPS 393021
2011 09 30.19489 01 01 54.27 +09 04 51.8 20.3 V 691 – Steward Observatory, Kitt Peak-Spacewatch MPS 393021
2011 09 30.21265 01 01 53.46 +09 04 44.7 20.1 V 691 – Steward Observatory, Kitt Peak-Spacewatch MPS 393021
2011 09 30.23042 01 01 52.63 +09 04 37.7 20.4 V 691 – Steward Observatory, Kitt Peak-Spacewatch MPS 393021
2011 10 26.19356 00 42 42.55 +06 02 37.2 19.9 V G96 – Mt. Lemmon Survey MPS 411642
2011 10 26.20067 00 42 42.22 +06 02 34.9 20.1 V G96 – Mt. Lemmon Survey MPS 411642
2011 10 26.20777 00 42 41.97 +06 02 31.6 20.1 V G96 – Mt. Lemmon Survey MPS 411642
2011 10 26.21792 00 42 41.54 +06 02 28.0 20.3 V G96 – Mt. Lemmon Survey MPS 411642
2011 11 16.18912 00 34 10.81 +04 16 05.0 20.4 V G96 – Mt. Lemmon Survey MPS 414298
2011 11 16.19605 00 34 10.70 +04 16 03.9 20.4 V G96 – Mt. Lemmon Survey MPS 414298
2011 11 16.20299 00 34 10.63 +04 16 02.4 20.4 V G96 – Mt. Lemmon Survey MPS 414298
2011 11 16.20995 00 34 10.56 +04 16 01.3 20.4 V G96 – Mt. Lemmon Survey MPS 414298
2013 01 10.52352 08 41 52.405 +09 52 20.97 20.5 w F51 – Pan-STARRS 1, Haleakala MPS 449683
2013 01 10.53730 08 41 51.727 +09 52 22.80 20.5 w F51 – Pan-STARRS 1, Haleakala MPS 449683
2013 01 10.55116 08 41 51.050 +09 52 24.36 20.5 w F51 – Pan-STARRS 1, Haleakala MPS 449683
2013 01 10.56504 08 41 50.374 +09 52 26.18 20.5 w F51 – Pan-STARRS 1, Haleakala MPS 449683
2013 01 17.28270 08 36 16.09 +10 08 50.6 20.8 V 703 – Catalina Sky Survey MPS 451023
2013 01 17.28784 08 36 15.69 +10 08 50.7 20.7 V 703 – Catalina Sky Survey MPS 451023
2013 01 17.29298 08 36 15.48 +10 08 51.8 19.7 V 703 – Catalina Sky Survey MPS 451023
2013 01 17.29804 08 36 15.22 +10 08 52.9 20.3 V 703 – Catalina Sky Survey MPS 451023
2013 01 20.39444 08 33 32.29 +10 18 02.7 20.1 V G96 – Mt. Lemmon Survey MPS 452357
2013 01 20.40143 08 33 31.89 +10 18 03.6 20.1 V G96 – Mt. Lemmon Survey MPS 452357
2013 01 20.40847 08 33 31.53 +10 18 05.2 20.1 V G96 – Mt. Lemmon Survey MPS 452357
2013 01 20.41545 08 33 31.14 +10 18 06.3 20.1 V G96 – Mt. Lemmon Survey MPS 452357
2013 01 21.47598 08 32 34.735 +10 21 28.11 20.1 i F51 – Pan-STARRS 1, Haleakala MPS 452357
2013 01 21.48891 08 32 34.020 +10 21 30.53 20.1 i F51 – Pan-STARRS 1, Haleakala MPS 452357
2013 02 10.41706 08 15 25.352 +11 36 53.49 20.4 w F51 – Pan-STARRS 1, Haleakala MPS 456340
2013 02 10.43247 08 15 24.612 +11 36 57.21 20.5 w F51 – Pan-STARRS 1, Haleakala MPS 456340
2013 02 10.44794 08 15 23.872 +11 37 00.98 20.5 w F51 – Pan-STARRS 1, Haleakala MPS 456340
2013 02 10.46339 08 15 23.135 +11 37 04.74 20.7 w F51 – Pan-STARRS 1, Haleakala MPS 456340
2014 04 05.52452 14 27 06.196 -14 10 56.53 21.1 w F51 – Pan-STARRS 1, Haleakala MPS 511046
2014 04 05.54564 14 27 05.340 -14 10 50.18 21.0 w F51 – Pan-STARRS 1, Haleakala MPS 511046
2014 04 05.55621 14 27 04.920 -14 10 47.10 20.9 w F51 – Pan-STARRS 1, Haleakala MPS 511046
2014 04 21.21777 14 15 30.49 -12 46 08.7 20.9 V 691 – Steward Observatory, Kitt Peak-Spacewatch MPS 512413
2014 04 21.23549 14 15 29.59 -12 46 03.2 20.5 V 691 – Steward Observatory, Kitt Peak-Spacewatch MPS 512413
2014 04 21.25322 14 15 28.70 -12 45 56.8 20.8 V 691 – Steward Observatory, Kitt Peak-Spacewatch MPS 512413
2014 04 23.21185 14 13 53.94 -12 34 26.7 20.5 V W84 – Cerro Tololo-DECam MPS 789995
2014 04 23.21508 14 13 53.78 -12 34 25.8   W84 – Cerro Tololo-DECam MPS 789995
2014 04 23.21824 14 13 53.62 -12 34 24.6   W84 – Cerro Tololo-DECam MPS 789995
2014 04 23.22142 14 13 53.46 -12 34 23.6   W84 – Cerro Tololo-DECam MPS 789995
2014 04 23.22458 14 13 53.30 -12 34 22.4   W84 – Cerro Tololo-DECam MPS 789995
2014 04 23.39984 14 13 44.907 -12 33 24.81 20.3 w F51 – Pan-STARRS 1, Haleakala MPS 512413
2014 04 23.41253 14 13 44.266 -12 33 20.31 20.1 w F51 – Pan-STARRS 1, Haleakala MPS 512413
2014 04 23.42526 14 13 43.619 -12 33 15.88 20.3 w F51 – Pan-STARRS 1, Haleakala MPS 512413
2014 04 23.43796 14 13 42.998 -12 33 11.27 20.1 w F51 – Pan-STARRS 1, Haleakala MPS 512413
2014 04 25.22513 14 12 16.30 -12 22 43.2   691 – Steward Observatory, Kitt Peak-Spacewatch MPS 512413
2014 04 25.24287 14 12 15.41 -12 22 36.5   691 – Steward Observatory, Kitt Peak-Spacewatch MPS 512413
2014 04 25.26061 14 12 14.48 -12 22 29.7   691 – Steward Observatory, Kitt Peak-Spacewatch MPS 512413
2014 04 26.08731 14 11 34.40 -12 17 34.4 20.3 V W84 – Cerro Tololo-DECam MPS 789995
2014 04 26.09053 14 11 34.24 -12 17 33.2   W84 – Cerro Tololo-DECam MPS 789995
2014 04 26.09371 14 11 34.08 -12 17 32.1   W84 – Cerro Tololo-DECam MPS 789995
2014 04 26.09689 14 11 33.92 -12 17 31.0   W84 – Cerro Tololo-DECam MPS 789995
2014 04 26.10014 14 11 33.76 -12 17 29.9   W84 – Cerro Tololo-DECam MPS 789995
2014 04 27.08906 14 10 45.73 -12 11 41.2 20.4 V W84 – Cerro Tololo-DECam MPS 789995
2014 04 27.09227 14 10 45.57 -12 11 40.0   W84 – Cerro Tololo-DECam MPS 789995
2014 04 27.09548 14 10 45.40 -12 11 38.9   W84 – Cerro Tololo-DECam MPS 789995
2014 04 29.44587 14 08 51.461 -11 57 55.79 20.4 w F51 – Pan-STARRS 1, Haleakala MPS 513745
2014 04 29.45888 14 08 50.814 -11 57 51.35 20.4 w F51 – Pan-STARRS 1, Haleakala MPS 513745
2014 04 29.47191 14 08 50.159 -11 57 46.67 20.5 w F51 – Pan-STARRS 1, Haleakala MPS 513745
2014 04 29.48496 14 08 49.511 -11 57 42.04 20.5 w F51 – Pan-STARRS 1, Haleakala MPS 513745
2014 05 28.29593 13 50 13.719 -09 36 26.10 21.3 w F51 – Pan-STARRS 1, Haleakala MPS 517824
